Location: Gorze? G�rny
(49.8500°N, 19.5000°E)
Time: 20:57:23
(UTC+00:00)

Cosmos 1674 Rocket - Pass Details

Date: 01 October 2021
Orbit: 601 x 631 km, 82.5° (Epoch: 21 October)

Event Time Altitude Azimuth Distance (km) Brightness Sun altitude
Rises 16:56:50 0° 343° (NNW) 2,875 7.3 -6.7°
Reaches altitude 10° 16:59:11 10° 335° (NNW) 1,963 6.5 -7.1°
Maximum altitude 17:03:09 36° 269° (W) 962 5.4 -7.7°
Drops below altitude 10° 17:07:05 10° 202° (SSW) 1,942 6.4 -8.4°
Sets 17:09:24 0° 194° (SSW) 2,840 7.1 -8.8°
